Hauptseite
METAR-TAF:

METAR-TAF

Flughäfen :

Flughafen Genua

Genua, Italien

Breite: 44-25N, Länge: 008-51E, Höhe: 2 m

Beobachtung

Neuester Wetterbericht von vor 14 Minuten, um 10:20 UTC
Wind 4 kt aus Süd/Südwest, variierte zwischen Süd/Südost und Südwest
Temperatur 26°C
Luftfeuchtigkeit 74%
Luftdruck 1015 hPa
Sichtweite 10 km oder mehr
Aufgelockert bewölkt in der Höhe von 2000 ft

METAR: LIMJ 181020Z 20004KT 160V230 9999 SCT020 26/21 Q1015

Zeit: 12:34 (10:34 UTC)

Prognose

Neuester Wetterbericht von vor 5 Stunden und 34 Minuten, um 05:00 UTC
Gültige Prognose vom 18 um 06 UTC bis 19 um 06 UTC
Wind 5 kt aus unterschiedlichen Richtungen
Sichtweite 10 km oder mehr
keine Wolken unter 1500 m und keine Kumulonimbus oder Gewitterwolken

TAF: LIMJ 180500Z 1806/1906 VRB05KT CAVOK

Wetterbeobachtungen und Prognosen von mehr als 4000 Flughäfen (METAR und TAF Bericht).

Die verfügbaren Stationen werden durch gelbe und rote Markierungen auf der Karte dargestellt.

Führen Sie die Maus auf sie, um den Namen der Station zu sehen.

Darauf klicken, um die Beobachtung von Wetterbeobachtungen und Prognosen zu sehen.

Um die Karte zu ändern : klicken Sie auf den grünen Tasten mit einem schwarzen Kreuz Zum Vergrößern, auf den grünen Button mit einem Gedankenstrich zu verkleinern, oder auf die grünen Pfeile für benachbarte Karten.


METAR-TAF: